www.pogodaiklimat.ru

Погода и климат >> Архив погоды >> Австралия >> Западная Австралия >> Телфер


ПОГОДА в Телфере

  • Прогноз погоды в Телфере
  • Монитор погоды в Телфере

АРХИВ ПОГОДЫ в Телфере

Время (UTC), дата Ветер
(напр.,м/с)
 
Видим.   Явления Облачность Т
(С)
Тd
(С)
f
(%)
Тe
(С)
Тes
(С)
Комфортность P
(гПа)
Po
(гПа)
Тmin
(С)
Tmax
(С)
R
(мм)
R24
(мм)
S
(см)
19 11.02 СЗ 5 н/о н/о +29.1 +20.5 60 +36 +36 очень
душно
1006.2 974.1
21 11.02 СЗ 5 н/о н/о +27.8 +22.1 71 +36 +36 очень
душно
1006.7 974.6
22 11.02 СЗ 6 н/о 8/0
[]
+27.7 +22.0 71 +36 +36 очень
душно
1007.4 975.3
00 12.02 СЗ 8 н/о н/о +30.0 +21.9 62 +39 +39 очень
душно
1008.3 976.1
01 12.02 З 9 н/о 1/0
[]
+34.3 +21.0 46 +42 +43 опасность
перегрева
1008.4 976.2 +27.7
03 12.02 З 7 н/о н/о +37.7 +18.7 33 +42 +42 опасность
перегрева
1007.2 975.1
04 12.02 З 7 н/о 1/0
[]
+40.2 +17.6 27 +43 +48 опасность
перегрева
1006.5 974.4
06 12.02 З 7 н/о н/о +42.9 +12.6 17 +42 +42 опасность
перегрева
1005.0 973.0
07 12.02 ЮЗ 6 н/о н/о +42.7 +11.5 16 +42 +42 опасность
перегрева
1004.2 972.2
09 12.02 ЮЗ 4 н/о н/о +41.5 +10.6 16 +40 +40 очень
жарко
1003.6 971.6
10 12.02 СЗ 3 н/о 5/0
[]
+40.8 +10.0 16 +39 +39 очень
жарко
1004.0 972.0
12 12.02 С 6 н/о н/о +35.6 +16.4 32 +38 +38 очень
душно
1006.7 974.6
13 12.02 СЗ 8 н/о 10/0
[]
+34.2 +21.3 47 +42 +42 опасность
перегрева
1007.7 975.6 +44.4
15 12.02 СЗ 7 н/о н/о +30.3 +18.4 49 +35 +35 очень
душно
1008.0 975.9
16 12.02 С 5 н/о 4/0
[]
+29.7 +17.8 49 +34 +34 очень
душно
1007.9 975.8
18 12.02 СЗ 5 н/о н/о +28.8 +19.4 57 +35 +35 очень
душно
1007.2 975.1
19 12.02 СЗ 5 н/о н/о +28.7 +20.7 62 +36 +36 очень
душно
1007.4 975.3
21 12.02 З 5 н/о н/о +27.9 +21.7 69 +36 +36 очень
душно
1008.5 976.3
22 12.02 СЗ 3 н/о н/о +27.6 +22.1 72 +36 +36 очень
душно
1009.6 977.4
00 13.02 СЗ 4 н/о н/о +30.2 +22.4 63 +39 +39 очень
душно
1010.8 978.6
01 13.02 З 2 н/о н/о +32.3 +21.5 53 +40 +40 очень
душно
1011.2 979.0 +27.6
03 13.02 СВ 2 н/о н/о +37.3 +18.8 34 +42 +42 опасность
перегрева
1010.3 978.1
04 13.02 С 4 н/о н/о +38.6 +18.4 31 +42 +42 опасность
перегрева
1009.3 977.1
06 13.02 В 7 н/о н/о +41.0 +12.8 19 +41 +41 опасность
перегрева
1007.5 975.4
07 13.02 СВ 4 н/о 1/0
[]
+41.0 +14.3 21 +42 +48 опасность
перегрева
1006.9 974.8
09 13.02 СВ 6 н/о н/о +40.9 +15.7 23 +42 +42 опасность
перегрева
1006.1 974.0
10 13.02 С 5 н/о 6/0
[]
+37.9 +16.2 28 +40 +40 очень
душно
1006.7 974.6
12 13.02 СЗ 3 н/о н/о +34.4 +15.8 33 +37 +37 очень
душно
1008.0 975.9
13 13.02 СЗ 4 н/о 8/0
[]
+34.6 +15.5 32 +37 +37 очень
душно
1009.3 977.1 +42.4
15 13.02 З 9 н/о н/о +31.1 +17.0 43 +35 +35 очень
душно
1009.5 977.3
16 13.02 З 7 н/о 9/0
[]
+30.8 +18.2 47 +35 +35 очень
душно
1009.2 977.0
18 13.02 Ю 3 н/о н/о +30.4 +17.5 46 +34 +34 очень
душно
1008.1 976.0
19 13.02 ЮВ 3 н/о 10/0
[]
+29.3 +17.5 49 +33 +33 душно 1007.9 975.8
21 13.02 штиль 0 н/о н/о +28.9 +18.1 52 +34 +34 очень
душно
1008.8 976.6
22 13.02 СЗ 4 н/о 10/0
[]
+28.8 +17.3 50 +33 +33 очень
душно
1009.7 977.5
00 14.02 ЮЗ 3 н/о н/о +31.5 +18.8 47 +37 +37 очень
душно
1011.1 978.9
01 14.02 В 4 н/о н/о +34.3 +15.7 33 +36 +36 душно 1010.9 978.7 +28.5
03 14.02 СВ 5 н/о н/о +37.6 +10.8 20 +37 +37 очень
жарко
1010.0 977.8
04 14.02 ЮВ 4 н/о н/о +39.3 +7.9 15 +37 +37 очень
жарко
1009.3 977.1
06 14.02 С 4 н/о н/о +40.6 +8.9 15 +39 +39 очень
жарко
1007.5 975.4
07 14.02 С 5 н/о н/о +41.8 +6.6 12 +39 +39 очень
жарко
1006.8 974.7
09 14.02 СЗ 3 н/о н/о +41.7 +7.7 13 +39 +39 очень
жарко
1006.3 974.2
10 14.02 С 3 н/о 6/0
[]
+40.3 +7.7 14 +38 +38 очень
жарко
1006.9 974.8
12 14.02 З 4 н/о н/о +37.2 +14.5 26 +38 +38 душно 1008.8 976.6
13 14.02 СЗ 1 н/о 10/0
[]
+35.2 +14.5 29 +36 +36 очень
жарко
1009.7 977.5 +43.2
15 14.02 З 2 н/о н/о +35.3 +14.6 29 +37 +37 очень
душно
1009.6 977.4
16 14.02 ЮЗ 7 н/о 10/0
[]
+34.6 +15.0 31 +36 +36 душно 1009.7 977.5
18 14.02 Ю 5 н/о н/о +32.1 +14.7 35 +34 +34 душно 1008.9 976.7
19 14.02 Ю 3 н/о н/о +31.5 +14.6 36 +33 +33 жарко 1008.7 976.5
21 14.02 ЮВ 3 н/о н/о +28.9 +14.7 42 +31 +31 жарко 1009.9 977.7
22 14.02 штиль 0 н/о 9/0
[]
+28.9 +14.7 42 +31 +31 жарко 1010.5 978.3
00 15.02 ЮВ 7 н/о н/о +35.0 +14.3 29 +36 +36 очень
жарко
1011.4 979.1
01 15.02 В 8 н/о 8/0
[]
+37.8 +9.4 18 +36 +38 очень
жарко
1011.4 979.1 +28.5
03 15.02 В 5 н/о н/о +40.7 +3.1 10 +37 +37 очень
жарко
1010.4 978.2
04 15.02 В 4 н/о 1/0
[]
+42.3 +4.3 10 +39 +54 опасность
солнечного
удара
1009.4 977.2
06 15.02 В 4 н/о н/о +42.6 +4.6 10 +40 +40 очень
жарко
1007.8 975.7
07 15.02 В 2 н/о н/о +42.8 +4.7 10 +40 +40 очень
жарко
1007.2 975.1
09 15.02 ЮВ 5 н/о н/о +42.5 +3.0 9 +39 +39 очень
жарко
1007.2 975.1
10 15.02 ЮВ 5 н/о 1/0
[]
+41.7 +2.4 9 +38 +38 очень
жарко
1007.6 975.5
12 15.02 ЮВ 3 н/о н/о +35.7 +4.1 14 +33 +33 жарко 1009.1 976.9
13 15.02 ЮВ 3 н/о 5/0
[]
+35.1 +4.6 15 +32 +32 жарко 1009.5 977.3 +44.5
15 15.02 ЮВ 3 н/о н/о +32.7 +4.5 17 +30 +30 жарко 1009.3 977.1
16 15.02 ЮВ 4 н/о н/о +31.6 +5.2 19 +30 +30 жарко 1008.9 976.7
18 15.02 ЮВ 4 н/о н/о +30.4 +4.9 20 +29 +29 жарко 1008.1 976.0
19 15.02 ЮВ 2 н/о н/о +28.9 +3.7 20 +27 +27 жарко 1008.1 976.0
21 15.02 ЮВ 3 н/о н/о +28.9 +2.2 18 +27 +27 жарко 1008.8 976.6
22 15.02 ЮВ 4 н/о н/о +28.7 +2.8 19 +27 +27 жарко 1009.4 977.2
00 16.02 СВ 5 н/о н/о +35.5 +1.8 12 +32 +32 жарко 1010.7 978.5
01 16.02 СВ 8 н/о н/о +38.3 -0.1 9 +35 +35 очень
жарко
1010.8 978.6 +28.1
03 16.02 СВ 6 н/о н/о +41.4 +3.7 10 +38 +38 очень
жарко
1009.7 977.5
04 16.02 С 5 н/о н/о +42.4 +5.8 11 +40 +40 очень
жарко
1008.8 976.6
06 16.02 Ю 4 н/о н/о +43.9 +5.5 10 +41 +41 опасность
перегрева
1007.0 974.9
07 16.02 ЮВ 6 н/о 9/0
[]
+44.1 +4.2 9 +41 +44 опасность
перегрева
1006.2 974.1
09 16.02 ЮВ 6 н/о н/о +43.2 +3.5 9 +40 +40 очень
жарко
1005.8 973.7
10 16.02 ЮВ 5 н/о 1/0
[]
+41.9 +2.6 9 +38 +38 очень
жарко
1005.8 973.7
12 16.02 ЮВ 3 н/о н/о +36.4 +4.6 14 +34 +34 очень
жарко
1007.4 975.3
13 16.02 ЮВ 3 н/о 9/0
[]
+34.7 +4.3 15 +32 +32 жарко 1007.6 975.5 +45.2
15 16.02 ЮВ 3 н/о н/о +32.0 +3.1 16 +29 +29 жарко 1007.4 975.3
16 16.02 ЮВ 2 н/о н/о +32.1 +2.2 15 +29 +29 жарко 1007.1 975.0
18 16.02 СВ 1 н/о н/о +31.2 +2.4 16 +29 +29 жарко 1005.3 973.2
19 16.02 В 3 н/о н/о +29.3 +3.3 19 +27 +27 жарко 1005.7 973.6
21 16.02 СЗ 4 н/о н/о +28.1 +21.4 67 +36 +36 очень
душно
1006.9 974.8
22 16.02 СЗ 5 н/о н/о +27.7 +23.7 79 +38 +38 очень
душно
1007.6 975.5
00 17.02 СЗ 7 н/о н/о +31.0 +22.9 62 +41 +41 опасность
перегрева
1008.4 976.2
01 17.02 З 7 н/о н/о +34.2 +21.9 49 +43 +43 опасность
перегрева
1008.6 976.4 +27.8
03 17.02 СЗ 4 н/о н/о +39.4 +17.5 28 +42 +42 опасность
перегрева
1007.5 975.4
04 17.02 С 6 н/о 4/0
[]
+41.3 +9.5 15 +40 +47 очень
жарко
1006.6 974.5
06 17.02 СЗ 4 н/о н/о +42.4 +9.3 14 +41 +41 опасность
перегрева
1004.7 972.7
07 17.02 З 4 н/о 9/0
[]
+43.7 +9.2 13 +42 +46 опасность
перегрева
1004.0 972.0
09 17.02 З 4 н/о н/о +42.3 +8.1 13 +40 +40 очень
жарко
1003.4 971.4
10 17.02 С 5 н/о 8/0
[]
+41.2 +10.4 16 +40 +40 очень
жарко
1003.5 971.5
12 17.02 СЗ 3 н/о н/о +38.0 +11.1 20 +37 +37 очень
жарко
1004.7 972.7
13 17.02 СЗ 8 н/о 9/0
[]
+37.1 +13.2 24 +37 +37 очень
жарко
1005.6 973.5 +44.7
15 17.02 СЗ 7 н/о н/о +33.8 +19.1 42 +39 +39 очень
душно
1006.1 974.0
16 17.02 СЗ 7 н/о 4/0
[]
+32.5 +18.3 43 +37 +37 очень
душно
1006.0 973.9
18 17.02 СЗ 6 н/о н/о +30.6 +19.0 50 +36 +36 очень
душно
1005.5 973.4
19 17.02 СЗ 5 н/о 1/0
[]
+29.5 +19.5 55 +35 +35 очень
душно
1005.6 973.5
21 17.02 СЗ 5 н/о н/о +28.0 +20.3 63 +34 +34 очень
душно
1005.9 973.8
22 17.02 СЗ 4 н/о н/о +27.5 +21.1 68 +35 +35 очень
душно
1006.3 974.2
00 18.02 СЗ 6 н/о н/о +31.2 +21.4 56 +39 +39 очень
душно
1006.8 974.7
01 18.02 З 7 н/о н/о +35.5 +18.1 36 +39 +39 очень
душно
1007.0 974.9 +27.4
03 18.02 ЮЗ 4 н/о н/о +40.2 +15.7 24 +42 +42 опасность
перегрева
1006.2 974.1
04 18.02 С 3 н/о 4/0
[]
+42.0 +16.6 23 +44 +58 опасность
перегрева
1005.7 973.6
06 18.02 З 4 н/о н/о +42.0 +12.8 18 +42 +42 опасность
перегрева
1004.0 972.0
07 18.02 С 6 н/о 4/0
[]
+43.0 +13.6 18 +43 +47 опасность
перегрева
1003.7 971.7
09 18.02 С 9 н/о н/о +40.3 +14.5 22 +41 +41 опасность
перегрева
1003.9 971.9
10 18.02 СЗ 6 н/о 10/0
[]
+36.7 +15.2 28 +38 +38 очень
душно
1004.3 972.3
12 18.02 С 5 н/о н/о +35.0 +14.3 29 +36 +36 очень
жарко
1005.0 973.0
13 18.02 СЗ 6 н/о 10/0
[]
+36.8 +10.2 20 +36 +36 очень
жарко
1005.4 973.3 +44.5
15 18.02 СЗ 7 н/о н/о +31.8 +21.3 54 +40 +40 очень
душно
1006.4 974.3
16 18.02 З 5 н/о 10/0
[]
+31.1 +21.9 58 +40 +40 очень
душно
1006.4 974.3
18 18.02 СЗ 4 н/о н/о +29.2 +22.4 67 +38 +38 очень
душно
1006.2 974.1
19 18.02 СЗ 4 н/о 10/0
[]
+28.2 +22.7 72 +37 +37 очень
душно
1006.6 974.5

 

Местоположение метеостанции Телфер (Западная Австралия, Австралия): широта -21.71 долгота 122.21 высота над уровнем моря 292 м.

В архиве по умолчанию представлена погода в Телфере за последнюю неделю. Архивные данные за месяц целиком и за предыдущие месяцы, начиная с января 2011 года, Вы можете получить, выбрав интересующий диапазон дат из раскрывающегося списка и нажав кнопку "Ввод!".


*Определитесь, кто Вы:
робот инопланетянин человек

Внимание! Время в таблицах - всемирное. Для получения местного времени необходимо прибавить поправку, которая равна 8 ч.

Смотрите также архив погоды в соседних городах и на ближайших метеорологических станциях:

Погода в Марбл-баре (Западная Австралия, Австралия) (261 км)
Погода в Мандоре (Западная Австралия, Австралия) (262 км)
Погода в Ньюмане (Западная Австралия, Австралия) (311 км)
Погода в Порт-Хедленде (Западная Австралия, Австралия) (401 км)
Погода в Бруме (Западная Австралия, Австралия) (418 км)
Погода в Робак Запад (Западная Австралия, Австралия) (424 км)
Погода в Параберду (Западная Австралия, Австралия) (486 км)
Погода на Базе ВВС Curtin (Западная Австралия, Австралия) (489 км)
Погода в Дерби (Северная территория, Австралия) (507 км)
Погода в Фицрой-Кроссинге (Западная Австралия, Австралия) (526 км)

Пояснения к столбцам:

Ветер - указаны скорость ветра в м/с - средняя за 10 мин, порывы в срок и между сроками (в фигурных скобках) и направление, откуда дует ветер: С - северный, СВ - северо-восточный, В - восточный, ЮВ - юго-восточный, Ю - южный, ЮЗ - юго-западный, З - западный, СЗ - северо-западный.
Видимость - горизонтальная дальность видимости в метрах или километрах. При видимости от 1 до 10 км при отсутствии осадков обычно наблюдается дымка, при ухудшении видимости до 1 км и менее - туман. В сухую погоду видимость может ухудшаться дымом, пылью или мглою.
Явления - указаны атмосферные явления, наблюдавшиеся в срок или в последний час перед сроком; фигурными скобками обозначены явления, наблюдавшиеся между сроками (за 1-3 часа до срока); квадратными скобками обозначены град или гололедные отложения с указанием их диаметра в мм.
Облачность - указаны через наклонную черту общая и нижняя облачность в баллах и высота нижней границы облаков в метрах; квадратными скобками обозначены формы облаков: Ci - перистые, Cs - перисто-слоистые, Cc - перисто-кучевые, Ac - высококучевые, As - высокослоистые, Sc - слоисто-кучевые, Ns - слоисто-дождевые, Cu - кучевые, Cb - кучево-дождевые. Подробнее классификацию облаков см. в Атласе облаков (PDF).
T - Температура воздуха - температура, измеренная на высоте 2 м над землей.
Td - Температура точки росы - температура, при понижении до которой содержащийся в воздухе водяной пар достигнет насыщения.
f - Относительная влажность воздуха - влажноcть воздуха, измеренная на высоте 2 м над землей.
Te - Эффективная температура - температура, которую ощущает одетый по сезону человек в тени. Характеристика душности погоды. При расчете учитывается влияние влажности воздуха и скорости ветра на теплоощущения человека.
Tes - Эффективная температура на солнце - температура, которую ощущает человек, с поправкой на солнечный нагрев. Характеристика знойности погоды. Зависит от высоты солнца над горизонтом, облачности и скорости ветра. Ночью, в пасмурную погоду, а также при ветре 12 м/с и более поправка равна нулю.
P - Атмосферное давление - приведенное к уровню моря атмосферное давление.
Po - Атмосферное давление - измеренное на уровне метеостанции атмосферное давление.
Tmin - Минимальная температура - минимум температуры воздуха на высоте 2 м над землей.
Tmax - Максимальная температура - максимум температуры воздуха на высоте 2 м над землей.
R - Количество осадков - Количество выпавших осадков за период времени, мм. При наведении курсора мыши на число - период времени, за который выпало указанное количество осадков.
R24 - Количество осадков - Количество выпавших осадков за 24 часа, мм.
S - Снежный покров - Высота снежного покрова, см. При наведении курсора мыши на число - состояние снежного покрова и степень покрытия местности в баллах.